This is the latest recevied weather packets stored in our database for station/object K4AVM-13. If no packets are shown the sender has not sent any weather packets the latest 10 day(s).
| Time | Temp. | Humidity | Pressure | Rain* | Wind** | Luminosity | Snow |
|---|---|---|---|---|---|---|---|
| 1777997294 | 26.11° C | 46% | 1015.8 hPa | 0 mm | - | 674 W/m² | - |
| 1777996992 | 26.11° C | 46% | 1016.1 hPa | 0 mm | - | 670 W/m² | - |
| 1777996688 | 26.67° C | 45% | 1016.2 hPa | 0 mm | - | 664 W/m² | - |
| 1777996384 | 26.11° C | 45% | 1016.2 hPa | 0 mm | - | 658 W/m² | - |
| 1777996081 | 26.67° C | 45% | 1016.3 hPa | 0 mm | - | 653 W/m² | - |
| 1777995777 | 26.11° C | 46% | 1016.2 hPa | 0 mm | - | 644 W/m² | - |
| 1777995473 | 25.56° C | 48% | 1016.4 hPa | 0 mm | - | 640 W/m² | - |
| 1777995170 | 25.56° C | 48% | 1016.2 hPa | 0 mm | - | 634 W/m² | - |
| 1777994867 | 25° C | 48% | 1016.3 hPa | 0 mm | - | 627 W/m² | - |
| 1777994564 | 25.56° C | 49% | 1016.1 hPa | 0 mm | - | 618 W/m² | - |
| 1777994258 | 25° C | 48% | 1016.2 hPa | 0 mm | - | 611 W/m² | - |
| 1777993956 | 25° C | 49% | 1016.2 hPa | 0 mm | - | 602 W/m² | - |
| 1777993653 | 25° C | 48% | 1016.3 hPa | 0 mm | - | 594 W/m² | - |
| 1777993350 | 25° C | 50% | 1016.1 hPa | 0 mm | - | 586 W/m² | - |
| 1777993044 | 25° C | 50% | 1016 hPa | 0 mm | - | 576 W/m² | - |
| 1777992743 | 24.44° C | 50% | 1016.1 hPa | 0 mm | - | 570 W/m² | - |
| 1777992440 | 23.89° C | 52% | 1016.1 hPa | 0 mm | - | 561 W/m² | - |
| 1777992138 | 23.89° C | 51% | 1016 hPa | 0 mm | - | 551 W/m² | - |
| 1777991835 | 23.33° C | 51% | 1016.2 hPa | 0 mm | - | 541 W/m² | - |
| 1777991532 | 23.33° C | 51% | 1016 hPa | 0 mm | - | 531 W/m² | - |
| 1777991229 | 23.89° C | 51% | 1016.1 hPa | 0 mm | - | 521 W/m² | - |
| 1777990927 | 22.78° C | 52% | 1016.1 hPa | 0 mm | - | 511 W/m² | - |
| 1777990624 | 22.78° C | 53% | 1016.2 hPa | 0 mm | - | 500 W/m² | - |
| 1777990017 | 22.78° C | 54% | 1016.4 hPa | 0 mm | - | 480 W/m² | - |
| 1777989714 | 22.22° C | 54% | 1016.1 hPa | 0 mm | - | 468 W/m² | - |
* Rain latest hour (hover to see other rain measurements)
** Current wind speed in m/s (hover to see current wind gust speed)